This is the latest recevied weather packets stored in our database for station/object N6WDO. If no packets are shown the sender has not sent any weather packets the latest 10 day(s).
| Time | Temp. | Humidity | Pressure | Rain* | Wind** | Luminosity | Snow |
|---|---|---|---|---|---|---|---|
| 1778017297 | 14.44° C | 68% | 1016.8 hPa | 0 mm | - | 144 W/m² | - |
| 1778016995 | 14.44° C | 69% | 1016.9 hPa | 0 mm | - | 146 W/m² | - |
| 1778016691 | 14.44° C | 71% | 1016.7 hPa | 0 mm | - | 127 W/m² | - |
| 1778016387 | 14.44° C | 70% | 1017.1 hPa | 0 mm | - | 112 W/m² | - |
| 1778015781 | 15° C | 68% | 1016.8 hPa | 0 mm | - | 108 W/m² | - |
| 1778015479 | 15° C | 68% | 1016.8 hPa | 0 mm | - | 123 W/m² | - |
| 1778015175 | 14.44° C | 68% | 1016.6 hPa | 0 mm | - | 152 W/m² | - |
| 1778014570 | 14.44° C | 69% | 1016.5 hPa | 0 mm | - | 180 W/m² | - |
| 1778013358 | 13.89° C | 76% | 1016.6 hPa | 0 mm | - | 143 W/m² | - |
| 1778013055 | 13.89° C | 76% | 1016.5 hPa | 0 mm | - | 110 W/m² | - |
| 1778012751 | 13.89° C | 77% | 1016.5 hPa | 0 mm | - | 86 W/m² | - |
| 1778009720 | 13.89° C | 77% | 1016.8 hPa | 0 mm | - | 151 W/m² | - |
| 1778009417 | 13.89° C | 77% | 1016.6 hPa | 0 mm | - | 163 W/m² | - |
| 1778009115 | 13.89° C | 77% | 1016.6 hPa | 0 mm | - | 182 W/m² | - |
| 1778008813 | 14.44° C | 75% | 1016.5 hPa | 0 mm | - | 202 W/m² | - |
| 1778008511 | 14.44° C | 77% | 1016.9 hPa | 0 mm | - | 230 W/m² | - |
| 1778008209 | 14.44° C | 77% | 1016.6 hPa | 0 mm | - | 225 W/m² | - |
| 1778007903 | 14.44° C | 78% | 1016.7 hPa | 0 mm | - | 244 W/m² | - |
| 1778006385 | 14.44° C | 79% | 1016.5 hPa | 0 mm | - | 284 W/m² | - |
| 1778006083 | 15° C | 78% | 1016.6 hPa | 0 mm | - | 291 W/m² | - |
| 1778005779 | 15° C | 76% | 1016.5 hPa | 0 mm | - | 361 W/m² | - |
| 1778005477 | 15° C | 74% | 1016.5 hPa | 0 mm | - | 372 W/m² | - |
| 1778005172 | 15.56° C | 78% | 1016.5 hPa | 0 mm | - | 465 W/m² | - |
| 1778004870 | 15.56° C | 74% | 1016.2 hPa | 0 mm | - | 822 W/m² | - |
| 1778004567 | 15° C | 79% | 1016.1 hPa | 0 mm | - | 949 W/m² | - |
* Rain latest hour (hover to see other rain measurements)
** Current wind speed in m/s (hover to see current wind gust speed)